This is the latest recevied weather packets stored in our database for station/object KC4GS-13. If no packets are shown the sender has not sent any weather packets the latest 10 day(s).
| Time | Temp. | Humidity | Pressure | Rain* | Wind** | Luminosity | Snow |
|---|---|---|---|---|---|---|---|
| 1787494428 | 28.89° C | 70% | 1017 hPa | 0 mm | - | 288 W/m² | - |
| 1787494124 | 28.89° C | 72% | 1017.2 hPa | 0 mm | - | 173 W/m² | - |
| 1787493819 | 28.33° C | 74% | 1017.2 hPa | 0 mm | - | 436 W/m² | - |
| 1787493514 | 27.78° C | 75% | 1017 hPa | 0 mm | - | 94 W/m² | - |
| 1787493209 | 27.78° C | 77% | 1017.1 hPa | 0 mm | - | 128 W/m² | - |
| 1787492905 | 27.22° C | 78% | 1017.1 hPa | 0 mm | - | 206 W/m² | - |
| 1787492601 | 26.67° C | 81% | 1017 hPa | 0 mm | - | 311 W/m² | - |
| 1787492296 | 26.11° C | 85% | 1016.9 hPa | 0 mm | - | 91 W/m² | - |
| 1787491985 | 25.56° C | 88% | 1016.7 hPa | 0 mm | - | 139 W/m² | - |
| 1787491680 | 24.44° C | 91% | 1016.8 hPa | 0 mm | - | 64 W/m² | - |
| 1787491375 | 24.44° C | 94% | 1016.9 hPa | 0 mm | - | 63 W/m² | - |
| 1787491072 | 23.89° C | 95% | 1016.8 hPa | 0 mm | - | 58 W/m² | - |
| 1787490768 | 24.44° C | 96% | 1016.5 hPa | 0 mm | - | 56 W/m² | - |
| 1787490467 | 24.44° C | 97% | 1016.9 hPa | 0 mm | - | 58 W/m² | - |
| 1787490165 | 24.44° C | 97% | 1016.9 hPa | 0 mm | - | 55 W/m² | - |
| 1787489860 | 23.89° C | 97% | 1016.7 hPa | 0 mm | - | 53 W/m² | - |
| 1787489555 | 23.89° C | 97% | 1016.7 hPa | 0 mm | - | 52 W/m² | - |
| 1787489252 | 23.33° C | 97% | 1016.6 hPa | 0 mm | - | 50 W/m² | - |
| 1787488947 | 23.33° C | 97% | 1016.3 hPa | 0 mm | - | 49 W/m² | - |
| 1787488642 | 22.78° C | 97% | 1016.6 hPa | 0 mm | - | 48 W/m² | - |
| 1787488339 | 22.78° C | 97% | 1016.5 hPa | 0 mm | - | 45 W/m² | - |
| 1787488036 | 22.78° C | 97% | 1016.3 hPa | 0 mm | - | 40 W/m² | - |
| 1787487732 | 22.22° C | 97% | 1016.4 hPa | 0 mm | - | 37 W/m² | - |
| 1787487428 | 22.22° C | 97% | 1016.6 hPa | 0 mm | - | 35 W/m² | - |
| 1787487125 | 22.22° C | 97% | 1016.3 hPa | 0 mm | - | 34 W/m² | - |
* Rain latest hour (hover to see other rain measurements)
** Current wind speed in m/s (hover to see current wind gust speed)